Regional Weather Roundup
Issued by NWS State College, PA

Current Version | Previous Version | Text Only | Print | Product List | Glossary On
Versions: 1 2 3 4 5 6 7 8 9 10 11 12 13 14 15 16 17 18 19 20 21 22 23 24 25 26 27 28 29 30 31 32 33 34 35 36 37 38 39 40 41 42 43 44 45 46 47 48 49 50
000
ASUS41 KCTP 311010
RWRCTP

REGIONAL WEATHER ROUNDUP
NATIONAL WEATHER SERVICE STATE COLLEGE PA
600 AM EDT MON AUG 31 2015

Note: "fair" indicates few or no clouds below 12,000 feet with no
significant weather and/or obstructions to visibility.

* = STATION THAT DOES NOT REPORT PRECIPITATION /E.G. RAIN...SNOW...ETC/
    THUNDER OR FOG.

PAZ002>004-007>009-013>016-020>023-029>032-311100-
WESTERN PENNSYLVANIA

CITY           SKY/WX    TMP DP  RH WIND       PRES   REMARKS
ERIE           CLEAR     70  64  81 S7        30.04S
MEADVILLE      CLEAR     67  63  87 SW3       30.09S
FRANKLIN*      CLEAR     63  61  94 SW5       30.11S
NEW CASTLE     FAIR      64  64 100 CALM      30.09S
BEAVER COUNTY  NOT AVBL
BUTLER*        MOCLDY    64  63  94 CALM      30.11S
PITTSBURGH INT CLOUDY    68  64  87 CALM      30.09S
PITTSBURGH     CLOUDY    68  63  84 S7        30.09S
INDIANA*       PTCLDY    66  66 100 CALM      30.13S
LATROBE        NOT AVBL
WASHINGTON CO* NOT AVBL
$$

PAZ004>006-010>012-017>019-024>028-033>037-041-042-045-046-049>053-311100-
CENTRAL PENNSYLVANIA

CITY           SKY/WX    TMP DP  RH WIND       PRES   REMARKS
BRADFORD       PTCLDY    64  62  93 CALM      30.11S FOG
DUBOIS         MOCLDY    64  61  90 CALM      30.10S FOG
CLEARFIELD     MOCLDY    62  60  93 S3        30.11S FOG
JOHNSTOWN      MOCLDY    67  63  87 W6        30.14S
ALTOONA        MOCLDY    69  62  78 SW3       30.11S
STATE COLLEGE  PTCLDY    66  64  94 CALM      30.09S
WILLIAMSPORT   CLOUDY    69  67  93 W3        30.05S FOG
SELINSGROVE    CLOUDY    65  63  93 CALM      30.07R FOG
FT INDIANTOWN  CLOUDY    67  65  96 S2        30.06R
CAPITAL CITY   CLOUDY    72  65  78 W3        30.05S
HARRISBURG     CLOUDY    72  67  84 CALM      30.05R
YORK           CLOUDY    68  66  93 CALM      30.06S
$$

PAZ038>040-043-044-047-048-054-055-060>062-067>071-311100-
EASTERN PENNSYLVANIA

CITY           SKY/WX    TMP DP  RH WIND       PRES   REMARKS
SCRANTON       MOCLDY    67  63  87 CALM      30.07R
MOUNT POCONO   MOCLDY    66  63  90 NW6       30.11R
ALLENTOWN      CLOUDY    69  66  90 W3        30.05R
QUAKERTOWN*    CLOUDY    68  68 100 CALM      30.06S
READING        CLOUDY    71  66  84 N3        30.04S
LANCASTER      CLOUDY    71  67  87 CALM      30.05F
COATESVILLE    CLOUDY    72  68  88 CALM      30.07S
POTTSTOWN      CLOUDY    70  69  97 CALM      30.07R
BLUE BELL      CLOUDY    72  70  94 CALM      30.05R
DOYLESTOWN     CLOUDY    70  68  93 SW3       30.04S
WILLOW GROVE   NOT AVBL
NORTH PHILA    CLOUDY    77  65  66 SW6       30.06S
PHILADELPHIA   CLOUDY    76  67  73 S7        30.05S
$$



USA.gov is the U.S. government's official web portal to all federal, state and local government web resources and services.